St. George, AK

12:07 PM AKDT on August 21, 2017 (GMT -0800)
Saint George

Weather History for PAPB - June, 2013

Change the Weather History Date:

Saturday, June 15, 2013

  Actual Average Record
Temperature  
Mean Temperature 45 °F -  
Max Temperature 50 °F 45 °F 50 °F (2006)
Min Temperature 42 °F 37 °F 35 °F (2012)
Degree Days  
Heating Degree Days 20    
Moisture  
Dew Point 44 °F    
Average Humidity 98    
Maximum Humidity 100    
Minimum Humidity 83    
Precipitation  
Precipitation 0.01 in - - ()
Sea Level Pressure  
Sea Level Pressure 29.82 in    
Wind  
Wind Speed 20 mph (SSE)    
Max Wind Speed 24 mph    
Max Gust Speed 33 mph    
Visibility 4 miles    
Events Rain    
Averages and records for this station are not official NWS values.
T = Trace of Precipitation, MM = Missing Value Source: NWS Daily Summary

Daily Weather History Graph

Daily Weather History Graph

Search for Another Location

Airport or City:

Trip Planner

Search our weather history database for the weather conditions in past years. The results will help you decide how hot, cold, wet, or windy it might be!

Date:

Astronomy

Jun. 15, 2013 Rise Set
Actual Time 6:27 AM AKDT 12:11 AM AKDT
Civil Twilight 5:21 AM AKDT 1:17 AM AKDT
Nautical Twilight 3:51 AM AKDT 2:46 AM AKDT
Astronomical Twilight Sun does not set Sun does not set
Moon 2:33 PM AKDT (6/15) 2:41 AM AKDT (6/15)
Length of Visible Light 19h 55m
Length of Day
17h 44m
Waxing Crescent, 41% of the Moon is Illuminated
Jun 15
Waxing Crescent
Jun 16
First Quarter
Jun 23
Full
Jun 29
Last Quarter
Jul 7
New

Hourly Weather History & Observations

Time (AKDT) Temp. Windchill Dew Point Humidity Pressure Visibility Wind Dir Wind Speed Gust Speed Precip Events Conditions
12:08 AM 44.6 °F 36.1 °F 44.6 °F 100% 29.77 in 5.0 mi SE 21.9 mph 28.8 mph 0.00 in Rain Light Rain
12:53 AM 45.0 °F 36.6 °F 45.0 °F 100% 29.72 in 5.0 mi SE 21.9 mph 26.5 mph 0.01 in   Overcast
1:07 AM 44.6 °F 36.6 °F 44.6 °F 100% 29.76 in 3.0 mi SSE 19.6 mph - N/A   Overcast
1:18 AM 44.6 °F 36.4 °F 44.6 °F 100% 29.76 in 2.5 mi SSE 20.7 mph 26.5 mph N/A   Overcast
1:53 AM 45.0 °F 37.4 °F 45.0 °F 100% 29.71 in 3.0 mi SSE 18.4 mph - 0.00 in   Overcast
2:05 AM 44.6 °F 36.6 °F 44.6 °F 100% 29.75 in 2.5 mi SSE 19.6 mph 28.8 mph N/A   Overcast
2:15 AM 44.6 °F 36.9 °F 44.6 °F 100% 29.75 in 1.2 mi SSE 18.4 mph - N/A   Overcast
2:36 AM 44.6 °F 36.9 °F 44.6 °F 100% 29.74 in 2.0 mi SSE 18.4 mph 26.5 mph N/A   Overcast
2:53 AM 45.0 °F 37.4 °F 45.0 °F 100% 29.72 in 2.0 mi SSE 18.4 mph 25.3 mph N/A   Overcast
3:01 AM 44.6 °F 36.6 °F 44.6 °F 100% 29.75 in 1.2 mi SSE 19.6 mph 26.5 mph N/A   Overcast
3:16 AM 44.6 °F 37.2 °F 44.6 °F 100% 29.75 in 2.5 mi SSE 17.3 mph 26.5 mph 0.00 in   Overcast
3:53 AM 45.0 °F 37.9 °F 45.0 °F 100% 29.71 in 1.8 mi SSE 16.1 mph 24.2 mph 0.00 in   Overcast
4:05 AM 44.6 °F 36.9 °F 44.6 °F 100% 29.74 in 2.0 mi SSE 18.4 mph 25.3 mph N/A   Overcast
4:19 AM 44.6 °F 36.9 °F 44.6 °F 100% 29.74 in 3.0 mi SSE 18.4 mph 26.5 mph N/A   Overcast
4:32 AM 44.6 °F 36.4 °F 44.6 °F 100% 29.74 in 2.0 mi SSE 20.7 mph 26.5 mph N/A   Overcast
4:41 AM 44.6 °F 36.4 °F 44.6 °F 100% 29.74 in 1.5 mi SSE 20.7 mph 28.8 mph N/A   Overcast
4:53 AM 45.0 °F 36.9 °F 45.0 °F 100% 29.71 in 1.2 mi SSE 20.7 mph - N/A   Overcast
5:07 AM 44.6 °F 36.6 °F 44.6 °F 100% 29.74 in 1.0 mi SSE 19.6 mph - N/A   Mist
5:14 AM 44.6 °F 36.6 °F 44.6 °F 100% 29.74 in 0.8 mi SSE 19.6 mph 27.6 mph N/A   Mist
5:38 AM 44.6 °F 36.4 °F 44.6 °F 100% 29.74 in 1.2 mi SSE 20.7 mph - 0.00 in Rain Light Rain
5:51 AM 44.6 °F 37.2 °F 44.6 °F 100% 29.75 in 1.0 mi SSE 17.3 mph 25.3 mph 0.00 in   Mist
5:53 AM 44.1 °F 36.2 °F 44.1 °F 100% 29.72 in 0.8 mi SSE 18.4 mph 25.3 mph 0.00 in   Mist
6:02 AM 44.6 °F 36.6 °F 44.6 °F 100% 29.75 in 1.0 mi SSE 19.6 mph - N/A   Mist
6:10 AM 44.6 °F 36.1 °F 44.6 °F 100% 29.75 in 1.2 mi South 21.9 mph 27.6 mph N/A   Overcast
6:21 AM 44.6 °F 35.7 °F 44.6 °F 100% 29.75 in 2.5 mi South 24.2 mph 31.1 mph N/A   Overcast
6:45 AM 44.6 °F 36.1 °F 44.6 °F 100% 29.76 in 3.0 mi South 21.9 mph - N/A   Overcast
6:53 AM 44.1 °F 36.2 °F 44.1 °F 100% 29.73 in 2.5 mi South 18.4 mph 26.5 mph N/A   Overcast
7:10 AM 44.6 °F 36.1 °F 44.6 °F 100% 29.76 in 1.0 mi South 21.9 mph - N/A   Overcast
7:40 AM 44.6 °F 36.1 °F 44.6 °F 100% 29.77 in 1.2 mi SSE 21.9 mph 28.8 mph N/A   Overcast
7:53 AM 44.1 °F 35.7 °F 44.1 °F 100% 29.74 in 1.2 mi South 20.7 mph - N/A   Overcast
8:12 AM 44.6 °F 36.4 °F 44.6 °F 100% 29.78 in 2.5 mi South 20.7 mph 29.9 mph N/A   Overcast
8:44 AM 42.8 °F 34.0 °F 42.8 °F 100% 29.79 in 1.8 mi South 20.7 mph 26.5 mph N/A   Overcast
8:53 AM 43.0 °F 33.8 °F 43.0 °F 100% 29.76 in 2.0 mi South 23.0 mph 28.8 mph N/A   Overcast
9:00 AM 42.8 °F 33.8 °F 42.8 °F 100% 29.80 in 1.5 mi South 21.9 mph 28.8 mph N/A   Overcast
9:08 AM 42.8 °F 34.3 °F 42.8 °F 100% 29.80 in 0.8 mi South 19.6 mph 26.5 mph N/A   Overcast
9:13 AM 42.8 °F 33.8 °F 42.8 °F 100% 29.80 in 1.2 mi South 21.9 mph 29.9 mph N/A   Overcast
9:18 AM 42.8 °F 33.8 °F 42.8 °F 100% 29.81 in 3.0 mi South 21.9 mph 29.9 mph N/A   Overcast
9:29 AM 42.8 °F 35.1 °F 42.8 °F 100% 29.81 in 1.8 mi South 16.1 mph 24.2 mph N/A   Overcast
9:34 AM 42.8 °F 34.3 °F 42.8 °F 100% 29.81 in 0.8 mi South 19.6 mph 24.2 mph N/A   Overcast
9:43 AM 44.6 °F 36.1 °F 44.6 °F 100% 29.81 in 1.2 mi South 21.9 mph 26.5 mph N/A   Overcast
9:51 AM 42.8 °F 34.8 °F 42.8 °F 100% 29.81 in 3.0 mi South 17.3 mph 26.5 mph N/A   Overcast
9:53 AM 43.0 °F 34.8 °F 43.0 °F 100% 29.78 in 2.5 mi South 18.4 mph - N/A   Overcast
10:01 AM 42.8 °F 36.2 °F 42.8 °F 100% 29.82 in 1.0 mi South 12.7 mph 23.0 mph N/A   Overcast
10:15 AM 44.6 °F 36.1 °F 44.6 °F 100% 29.82 in 2.0 mi South 21.9 mph 28.8 mph N/A   Overcast
10:31 AM 44.6 °F 36.4 °F 44.6 °F 100% 29.82 in 1.2 mi South 20.7 mph 24.2 mph N/A   Overcast
10:38 AM 42.8 °F 34.5 °F 42.8 °F 100% 29.82 in 1.0 mi South 18.4 mph - N/A   Overcast
10:53 AM 44.1 °F 35.9 °F 44.1 °F 100% 29.80 in 1.2 mi South 19.6 mph 26.5 mph N/A   Overcast
11:03 AM 44.6 °F 36.4 °F 44.6 °F 100% 29.83 in 3.0 mi South 20.7 mph - N/A   Overcast
11:21 AM 44.6 °F 36.6 °F 44.6 °F 100% 29.83 in 2.5 mi South 19.6 mph - N/A   Overcast
11:31 AM 44.6 °F 36.6 °F 44.6 °F 100% 29.84 in 1.8 mi South 19.6 mph - N/A   Overcast
11:39 AM 44.6 °F 37.2 °F 44.6 °F 100% 29.84 in 2.0 mi South 17.3 mph 27.6 mph N/A   Overcast
11:47 AM 44.6 °F 36.9 °F 44.6 °F 100% 29.84 in 1.0 mi South 18.4 mph - N/A   Overcast
11:53 AM 45.0 °F 37.4 °F 45.0 °F 100% 29.81 in 0.8 mi South 18.4 mph - N/A   Overcast
12:30 PM 44.6 °F 36.6 °F 44.6 °F 100% 29.84 in 1.2 mi SSE 19.6 mph - N/A   Overcast
12:51 PM 44.6 °F 36.9 °F 44.6 °F 100% 29.85 in 1.0 mi SSE 18.4 mph - N/A   Overcast
12:53 PM 45.0 °F 37.4 °F 45.0 °F 100% 29.81 in 1.0 mi SSE 18.4 mph - N/A   Overcast
1:00 PM 44.6 °F 36.4 °F 44.6 °F 100% 29.85 in 1.2 mi SSE 20.7 mph 26.5 mph N/A   Overcast
1:10 PM 44.6 °F 36.4 °F 44.6 °F 100% 29.86 in 1.0 mi SSE 20.7 mph 25.3 mph N/A   Overcast
1:25 PM 44.6 °F 36.6 °F 44.6 °F 100% 29.86 in 2.0 mi SSE 19.6 mph - N/A   Overcast
1:36 PM 44.6 °F 36.4 °F 44.6 °F 100% 29.86 in 3.0 mi SSE 20.7 mph 27.6 mph N/A   Overcast
1:45 PM 44.6 °F 36.6 °F 44.6 °F 100% 29.86 in 2.5 mi SSE 19.6 mph - N/A   Overcast
1:53 PM 45.0 °F 37.4 °F 45.0 °F 100% 29.84 in 3.0 mi SSE 18.4 mph - N/A   Overcast
2:02 PM 44.6 °F 37.2 °F 44.6 °F 100% 29.87 in 1.8 mi SSE 17.3 mph - N/A   Overcast
2:26 PM 46.4 °F 39.2 °F 46.4 °F 100% 29.87 in 3.0 mi South 18.4 mph 27.6 mph N/A   Overcast
2:42 PM 46.4 °F 38.5 °F 46.4 °F 100% 29.88 in 2.5 mi South 21.9 mph - N/A   Overcast
2:50 PM 46.4 °F 38.7 °F 46.4 °F 100% 29.88 in 5.0 mi South 20.7 mph - N/A   Overcast
2:53 PM 46.0 °F 38.3 °F 46.0 °F 100% 29.85 in 7.0 mi South 20.7 mph - N/A   Overcast
3:16 PM 46.4 °F 39.0 °F 44.6 °F 93% 29.89 in 9.0 mi South 19.6 mph 25.3 mph N/A   Overcast
3:53 PM 46.9 °F - 43.0 °F 86% 29.87 in 10.0 mi South 19.6 mph 27.6 mph N/A   Overcast
4:53 PM 48.0 °F - 44.1 °F 86% 29.88 in 10.0 mi South 21.9 mph 28.8 mph N/A   Overcast
5:36 PM 48.2 °F - 44.6 °F 87% 29.93 in 10.0 mi South 24.2 mph 29.9 mph N/A   Scattered Clouds
5:46 PM 48.2 °F - 44.6 °F 87% 29.93 in 10.0 mi South 24.2 mph 28.8 mph N/A   Mostly Cloudy
5:53 PM 48.0 °F - 43.0 °F 83% 29.90 in 10.0 mi South 23.0 mph 28.8 mph N/A   Mostly Cloudy
6:36 PM 48.2 °F - 44.6 °F 87% 29.94 in 10.0 mi SSE 23.0 mph 29.9 mph N/A   Scattered Clouds
6:53 PM 48.0 °F - 44.1 °F 86% 29.91 in 10.0 mi South 20.7 mph 29.9 mph N/A   Scattered Clouds
7:53 PM 48.0 °F - 43.0 °F 83% 29.92 in 10.0 mi South 23.0 mph 33.4 mph N/A   Clear
8:53 PM 48.0 °F - 43.0 °F 83% 29.94 in 10.0 mi SSE 19.6 mph - N/A   Clear
9:53 PM 46.0 °F 39.0 °F 43.0 °F 89% 29.96 in 10.0 mi SSE 17.3 mph 25.3 mph N/A   Clear
10:53 PM 45.0 °F 37.6 °F 43.0 °F 93% 29.97 in 10.0 mi SSE 17.3 mph - N/A   Scattered Clouds
11:01 PM 44.6 °F 36.9 °F 42.8 °F 93% 30.01 in 10.0 mi SSE 18.4 mph 24.2 mph N/A   Mostly Cloudy
11:31 PM 44.6 °F 36.4 °F 42.8 °F 93% 30.02 in 10.0 mi SSE 20.7 mph 25.3 mph N/A   Overcast
11:53 PM 45.0 °F 37.6 °F 43.0 °F 93% 29.99 in 10.0 mi SSE 17.3 mph - N/A   Overcast